ロニオス彗星

182P/LONEOS (2007)

English version
Home page
Total 6,336 html files since Dec. 4, 1995
Updated on September 21, 2007

---------------------------------------------------------------------

・ プロフィール

符号 182P/2006 W2
検出日 2006年11月18日
検出光度 19.6等
検出者 E. J. Christensen (Lunar and Planetary Laboratory)

・ 軌道要素

The following orbital elements are taken from MPC 58120:

Epoch 2007 Jan. 20.0 TT = JDT 2454120.5
T 2007 Feb. 6.1422 TT                                   MPC
q   0.979669             (2000.0)            P               Q
n   0.1962693      Peri.   51.4476      -0.5622861      -0.7777513
a   2.932476       Node    75.0606      +0.6389963      -0.6243022
e   0.665924       Incl.   16.9051      +0.5248982      -0.0731416
P   5.02
From 132 observations 2001-2006, mean residual 0".5.

・ 光度変化

        H = 19.0  G = 0.15

---------------------------------------------------------------------

軌道要素はMPCのEphemerides and Orbital Elementsに掲載されたものです。
光度グラフはComet for Windowsで作成したものです。

---------------------------------------------------------------------

Copyright(C) 1995-2008 Seiichi Yoshida (comet@aerith.net). All rights reserved.